This is the latest recevied weather packets stored in our database for station/object M0UPS-13. If no packets are shown the sender has not sent any weather packets the latest 10 day(s).
| Time | Temp. | Humidity | Pressure | Rain* | Wind** | Luminosity | Snow |
|---|---|---|---|---|---|---|---|
| 1777454402 | 16.11° C | 38% | 1023.9 hPa | 0 mm | - | 567 W/m² | - |
| 1777454102 | 16.11° C | 37% | 1024.1 hPa | 0 mm | - | 510 W/m² | - |
| 1777453803 | 16.11° C | 38% | 1023.7 hPa | 0 mm | - | 496 W/m² | - |
| 1777453502 | 15.56° C | 41% | 1023.9 hPa | 0 mm | - | 486 W/m² | - |
| 1777453202 | 16.11° C | 38% | 1023.9 hPa | 0 mm | - | 475 W/m² | - |
| 1777452902 | 15.56° C | 41% | 1024 hPa | 0 mm | - | 459 W/m² | - |
| 1777452602 | 15.56° C | 41% | 1024.2 hPa | 0 mm | - | 443 W/m² | - |
| 1777452303 | 15.56° C | 41% | 1024.1 hPa | 0 mm | - | 430 W/m² | - |
| 1777452002 | 15° C | 42% | 1024.2 hPa | 0 mm | - | 417 W/m² | - |
| 1777451703 | 15° C | 43% | 1024.1 hPa | 0 mm | - | 405 W/m² | - |
| 1777451402 | 15° C | 42% | 1024.4 hPa | 0 mm | - | 392 W/m² | - |
| 1777451102 | 15.56° C | 42% | 1024.3 hPa | 0 mm | - | 353 W/m² | - |
| 1777450803 | 15° C | 46% | 1024 hPa | 0 mm | - | 362 W/m² | - |
| 1777450502 | 15° C | 46% | 1024 hPa | 0 mm | - | 346 W/m² | - |
| 1777450202 | 15° C | 47% | 1024 hPa | 0 mm | - | 331 W/m² | - |
| 1777449903 | 15° C | 47% | 1024 hPa | 0 mm | - | 318 W/m² | - |
| 1777449603 | 15° C | 49% | 1023.9 hPa | 0 mm | - | 301 W/m² | - |
| 1777449302 | 14.44° C | 49% | 1023.9 hPa | 0 mm | - | 289 W/m² | - |
| 1777449002 | 14.44° C | 50% | 1024 hPa | 0 mm | - | 272 W/m² | - |
| 1777448702 | 13.89° C | 51% | 1023.9 hPa | 0 mm | - | 261 W/m² | - |
| 1777448402 | 13.89° C | 52% | 1023.9 hPa | 0 mm | - | 243 W/m² | - |
| 1777448102 | 13.89° C | 54% | 1024 hPa | 0 mm | - | 232 W/m² | - |
| 1777447802 | 13.89° C | 53% | 1023.8 hPa | 0 mm | - | 217 W/m² | - |
| 1777447502 | 13.33° C | 54% | 1023.9 hPa | 0 mm | - | 204 W/m² | - |
| 1777447202 | 13.33° C | 56% | 1023.6 hPa | 0 mm | - | 188 W/m² | - |
* Rain latest hour (hover to see other rain measurements)
** Current wind speed in m/s (hover to see current wind gust speed)